BEL75Y LGKO-EBBR

Flight info

Callsign BEL75Y
Flight time 3h 16m
Altitude 36000
Route LARKI UL609 MES DCT DISOR DCT LONTA UL608 DOLEV DCT YUYUH DCT KOMAR DCT KUSIB DCT GORPA DCT DOL DCT NIPEL DCT ERKIR DCT BABEG DCT IDOVI Z104 GESLO N852 LNO
Aircraft A320/M-DE3FGHIJ1LORVWY/HB1

Departure

Time 2026-05-08 11:26
Airport Kos International Airport "Ippokratis" (LGKO)

Arrival

Time 2026-05-08 14:42
Airport Brussels Airport (EBBR)
Time Latitude Longitude Altitude Speed Heading
2026-05-08 10:46 36.80113 27.08957 419 ft 0 kts 58°
2026-05-08 11:06 36.80104 27.08938 409 ft 4 kts 58°
2026-05-08 11:06 36.80089 27.08909 413 ft 4 kts 58°
2026-05-08 11:06 36.80077 27.08884 408 ft 4 kts 68°
2026-05-08 11:06 36.80076 27.08864 408 ft 4 kts 153°
2026-05-08 11:07 36.80101 27.08852 415 ft 4 kts 154°
2026-05-08 11:07 36.80108 27.08847 408 ft 0 kts 148°
2026-05-08 11:12 36.80083 27.08867 416 ft 8 kts 147°
2026-05-08 11:12 36.80026 27.08913 419 ft 9 kts 147°
2026-05-08 11:12 36.79973 27.08954 415 ft 10 kts 149°
2026-05-08 11:12 36.79911 27.08980 413 ft 9 kts 177°
2026-05-08 11:13 36.79857 27.08983 411 ft 7 kts 178°
2026-05-08 11:13 36.79816 27.08985 410 ft 5 kts 178°
2026-05-08 11:13 36.79803 27.08985 415 ft 0 kts 178°
2026-05-08 11:22 36.79767 27.08987 412 ft 11 kts 178°
2026-05-08 11:22 36.79659 27.08992 419 ft 19 kts 178°
2026-05-08 11:22 36.79521 27.09065 415 ft 26 kts 148°
2026-05-08 11:23 36.79345 27.09202 412 ft 34 kts 148°
2026-05-08 11:23 36.79128 27.09372 403 ft 39 kts 148°
2026-05-08 11:23 36.78891 27.09558 396 ft 39 kts 147°
2026-05-08 11:23 36.78678 27.09724 393 ft 28 kts 148°
2026-05-08 11:24 36.78600 27.09824 389 ft 12 kts 122°
2026-05-08 11:24 36.78564 27.09802 388 ft 6 kts 304°
2026-05-08 11:24 36.78582 27.09791 389 ft 1 kts 336°
2026-05-08 11:24 36.78593 27.09785 390 ft 7 kts 334°
2026-05-08 11:25 36.78625 27.09761 391 ft 3 kts 328°
2026-05-08 11:25 36.78724 27.09684 393 ft 49 kts 328°
2026-05-08 11:25 36.79225 27.09294 407 ft 117 kts 328°
2026-05-08 11:25 36.80066 27.08642 487 ft 160 kts 327°
2026-05-08 11:26 36.81023 27.07913 1106 ft 161 kts 322°
2026-05-08 11:26 36.81680 27.06821 1785 ft 159 kts 285°
2026-05-08 11:26 36.81680 27.05466 2406 ft 157 kts 257°
2026-05-08 11:26 36.81643 27.04113 2876 ft 158 kts 287°
2026-05-08 11:27 36.82187 27.02868 3177 ft 174 kts 302°
2026-05-08 11:27 36.82902 27.01528 3358 ft 196 kts 302°
2026-05-08 11:27 36.83682 27.00042 3652 ft 209 kts 301°
2026-05-08 11:27 36.84479 26.98510 4143 ft 212 kts 301°
2026-05-08 11:28 36.85282 26.96956 4594 ft 217 kts 301°
2026-05-08 11:28 36.86136 26.95294 4819 ft 240 kts 301°
2026-05-08 11:28 36.87138 26.93500 5115 ft 263 kts 313°
2026-05-08 11:28 36.88716 26.92217 5734 ft 273 kts 336°
2026-05-08 11:29 36.90497 26.91326 6510 ft 277 kts 337°
2026-05-08 11:29 36.92302 26.90441 7249 ft 280 kts 337°
2026-05-08 11:29 36.94128 26.89553 7983 ft 284 kts 337°
2026-05-08 11:29 36.95979 26.88655 8716 ft 287 kts 336°
2026-05-08 11:30 36.97851 26.87746 9450 ft 291 kts 336°
2026-05-08 11:30 36.99748 26.86824 10167 ft 294 kts 336°
2026-05-08 11:30 37.01707 26.85867 10473 ft 314 kts 336°
2026-05-08 11:30 37.03813 26.84831 10621 ft 337 kts 336°
2026-05-08 11:31 37.06041 26.83737 11003 ft 349 kts 336°
2026-05-08 11:31 37.08289 26.82637 11610 ft 353 kts 336°
2026-05-08 11:31 37.10589 26.81510 12271 ft 356 kts 335°
2026-05-08 11:31 37.12906 26.80374 12962 ft 359 kts 335°
2026-05-08 11:32 37.15236 26.79230 13652 ft 361 kts 335°
2026-05-08 11:32 37.17584 26.78074 14291 ft 363 kts 335°
2026-05-08 11:32 37.19940 26.76914 14922 ft 365 kts 335°
2026-05-08 11:32 37.22308 26.75751 15544 ft 366 kts 335°
2026-05-08 11:33 37.24684 26.74585 16158 ft 367 kts 335°
2026-05-08 11:33 37.27064 26.73412 16763 ft 368 kts 335°
2026-05-08 11:33 37.29454 26.72233 17371 ft 370 kts 335°
2026-05-08 11:33 37.31853 26.71051 17997 ft 371 kts 334°
2026-05-08 11:34 37.34266 26.69858 18552 ft 374 kts 334°
2026-05-08 11:34 37.36690 26.68656 19048 ft 375 kts 334°
2026-05-08 11:34 37.39125 26.67449 19547 ft 377 kts 334°
2026-05-08 11:34 37.41576 26.66236 20054 ft 379 kts 334°
2026-05-08 11:35 37.44038 26.65019 20547 ft 381 kts 334°
2026-05-08 11:35 37.46513 26.63794 21042 ft 383 kts 334°
2026-05-08 11:35 37.49003 26.62561 21524 ft 385 kts 334°
2026-05-08 11:35 37.51501 26.61321 21997 ft 387 kts 334°
2026-05-08 11:36 37.54014 26.60072 22453 ft 389 kts 334°
2026-05-08 11:36 37.56541 26.58815 22898 ft 392 kts 334°
2026-05-08 11:36 37.59082 26.57547 23333 ft 394 kts 334°
2026-05-08 11:36 37.61635 26.56269 23746 ft 396 kts 333°
2026-05-08 11:37 37.64207 26.54982 24061 ft 399 kts 333°
2026-05-08 11:37 37.66786 26.53664 24397 ft 400 kts 329°
2026-05-08 11:37 37.69194 26.51951 24725 ft 395 kts 320°
2026-05-08 11:37 37.71333 26.49792 25038 ft 394 kts 315°
2026-05-08 11:38 37.73412 26.47533 25371 ft 395 kts 315°
2026-05-08 11:38 37.75472 26.45294 25674 ft 397 kts 314°
2026-05-08 11:38 37.77567 26.43012 26005 ft 398 kts 314°
2026-05-08 11:38 37.79673 26.40716 26322 ft 400 kts 314°
2026-05-08 11:39 37.81781 26.38416 26634 ft 402 kts 314°
2026-05-08 11:39 37.83901 26.36100 26953 ft 403 kts 314°
2026-05-08 11:39 37.86025 26.33779 27266 ft 404 kts 314°
2026-05-08 11:39 37.88159 26.31448 27553 ft 406 kts 314°
2026-05-08 11:40 37.90299 26.29102 27840 ft 408 kts 313°
2026-05-08 11:40 37.92443 26.26745 28118 ft 409 kts 313°
2026-05-08 11:40 37.94596 26.24377 28367 ft 411 kts 313°
2026-05-08 11:40 37.96766 26.21988 28575 ft 414 kts 313°
2026-05-08 11:41 37.98951 26.19585 28815 ft 417 kts 313°
2026-05-08 11:41 38.01143 26.17176 29060 ft 418 kts 313°
2026-05-08 11:41 38.03343 26.14754 29305 ft 420 kts 313°
2026-05-08 11:41 38.05551 26.12316 29537 ft 421 kts 312°
2026-05-08 11:42 38.07764 26.09872 29771 ft 422 kts 312°
2026-05-08 11:42 38.09981 26.07423 29985 ft 424 kts 312°
2026-05-08 11:42 38.12209 26.04958 30214 ft 425 kts 312°
2026-05-08 11:42 38.14441 26.02484 30394 ft 426 kts 312°
2026-05-08 11:43 38.16671 26.00015 30667 ft 425 kts 311°
2026-05-08 11:43 38.18895 25.97556 30943 ft 423 kts 311°
2026-05-08 11:43 38.21111 25.95106 31238 ft 421 kts 311°
2026-05-08 11:43 38.23316 25.92660 31497 ft 421 kts 311°
2026-05-08 11:44 38.25520 25.90213 31749 ft 420 kts 311°
2026-05-08 11:44 38.27770 25.87828 32020 ft 421 kts 313°
2026-05-08 11:44 38.30070 25.85523 32284 ft 421 kts 314°
2026-05-08 11:44 38.32396 25.83262 32550 ft 420 kts 315°
2026-05-08 11:45 38.34721 25.81018 32810 ft 419 kts 315°
2026-05-08 11:45 38.37035 25.78771 33070 ft 417 kts 314°
2026-05-08 11:45 38.39301 25.76547 33329 ft 416 kts 314°
2026-05-08 11:45 38.41577 25.74288 33604 ft 414 kts 314°
2026-05-08 11:46 38.43845 25.72019 33848 ft 414 kts 314°
2026-05-08 11:46 38.46104 25.69754 34092 ft 413 kts 314°
2026-05-08 11:46 38.48360 25.67492 34315 ft 412 kts 314°
2026-05-08 11:46 38.50610 25.65234 34516 ft 411 kts 314°
2026-05-08 11:47 38.52859 25.62977 34710 ft 411 kts 314°
2026-05-08 11:47 38.55110 25.60714 34851 ft 412 kts 314°
2026-05-08 11:47 38.57363 25.58445 35025 ft 412 kts 314°
2026-05-08 11:47 38.59616 25.56178 35210 ft 412 kts 314°
2026-05-08 11:48 38.61867 25.53914 35380 ft 412 kts 314°
2026-05-08 11:48 38.64121 25.51648 35537 ft 412 kts 314°
2026-05-08 11:48 38.66372 25.49380 35697 ft 412 kts 314°
2026-05-08 11:48 38.68623 25.47112 35877 ft 412 kts 314°
2026-05-08 11:49 38.70873 25.44844 36037 ft 411 kts 314°
2026-05-08 11:49 38.75368 25.40304 36147 ft 412 kts 314°
2026-05-08 11:50 38.79862 25.35753 36144 ft 412 kts 314°
2026-05-08 11:50 38.84353 25.31196 36146 ft 412 kts 314°
2026-05-08 11:51 38.88857 25.26633 36141 ft 413 kts 314°
2026-05-08 11:51 38.93364 25.22058 36140 ft 413 kts 314°
2026-05-08 11:52 38.97861 25.17474 36150 ft 413 kts 314°
2026-05-08 11:52 39.02332 25.12907 36147 ft 413 kts 314°
2026-05-08 11:53 39.06839 25.08306 36139 ft 414 kts 314°
2026-05-08 11:53 39.11342 25.03694 36133 ft 414 kts 314°
2026-05-08 11:54 39.15849 24.99076 36156 ft 414 kts 315°
2026-05-08 11:54 39.20366 24.94441 36137 ft 415 kts 315°
2026-05-08 11:55 39.24882 24.89789 36136 ft 416 kts 315°
2026-05-08 11:55 39.29406 24.85124 36128 ft 417 kts 315°
2026-05-08 11:56 39.33939 24.80445 36127 ft 417 kts 315°
2026-05-08 11:56 39.38474 24.75757 36128 ft 418 kts 315°
2026-05-08 11:57 39.43009 24.71052 36132 ft 418 kts 315°
2026-05-08 11:57 39.47546 24.66347 36134 ft 418 kts 315°
2026-05-08 11:58 39.52085 24.61635 36139 ft 419 kts 315°
2026-05-08 11:58 39.56632 24.56908 36127 ft 420 kts 315°
2026-05-08 11:59 39.63467 24.49785 36122 ft 420 kts 315°
2026-05-08 11:59 39.68010 24.45021 36122 ft 420 kts 315°
2026-05-08 12:00 39.72533 24.40287 36126 ft 420 kts 315°
2026-05-08 12:00 39.77082 24.35509 36153 ft 421 kts 315°
2026-05-08 12:01 39.81635 24.30710 36135 ft 422 kts 315°
2026-05-08 12:01 39.86201 24.25912 36123 ft 422 kts 315°
2026-05-08 12:02 39.90773 24.21097 36122 ft 423 kts 315°
2026-05-08 12:02 39.95342 24.16271 36122 ft 423 kts 315°
2026-05-08 12:03 39.99914 24.11434 36124 ft 423 kts 315°
2026-05-08 12:03 40.04484 24.06586 36147 ft 424 kts 315°
2026-05-08 12:04 40.09067 24.01720 36126 ft 425 kts 315°
2026-05-08 12:04 40.13659 23.96836 36115 ft 426 kts 315°
2026-05-08 12:05 40.18256 23.91946 36115 ft 426 kts 315°
2026-05-08 12:05 40.22849 23.87033 36114 ft 427 kts 315°
2026-05-08 12:06 40.26672 23.82936 36111 ft 427 kts 315°
2026-05-08 12:06 40.31270 23.78005 36116 ft 427 kts 315°
2026-05-08 12:07 40.35865 23.73058 36132 ft 428 kts 315°
2026-05-08 12:07 40.40473 23.68110 36122 ft 428 kts 315°
2026-05-08 12:08 40.45086 23.63151 36119 ft 429 kts 315°
2026-05-08 12:08 40.49696 23.58179 36117 ft 429 kts 315°
2026-05-08 12:09 40.54303 23.53194 36120 ft 429 kts 315°
2026-05-08 12:09 40.58914 23.48192 36121 ft 430 kts 315°
2026-05-08 12:10 40.63529 23.43170 36110 ft 431 kts 315°
2026-05-08 12:10 40.68154 23.38141 36114 ft 432 kts 315°
2026-05-08 12:11 40.72789 23.33097 36105 ft 433 kts 315°
2026-05-08 12:11 40.77426 23.28034 36105 ft 433 kts 315°
2026-05-08 12:12 40.82066 23.22958 36126 ft 433 kts 315°
2026-05-08 12:12 40.86713 23.17873 36114 ft 434 kts 315°
2026-05-08 12:13 40.91363 23.12771 36112 ft 435 kts 315°
2026-05-08 12:13 40.96019 23.07660 36121 ft 435 kts 315°
2026-05-08 12:14 41.00671 23.02523 36120 ft 436 kts 315°
2026-05-08 12:14 41.05294 22.97406 36111 ft 436 kts 315°
2026-05-08 12:15 41.09954 22.92252 36120 ft 437 kts 315°
2026-05-08 12:15 41.14620 22.87086 36114 ft 437 kts 315°
2026-05-08 12:16 41.19285 22.81904 36108 ft 438 kts 315°
2026-05-08 12:16 41.23951 22.76703 36122 ft 438 kts 314°
2026-05-08 12:17 41.28115 22.70888 36113 ft 434 kts 308°
2026-05-08 12:17 41.32173 22.64943 36105 ft 434 kts 308°
2026-05-08 12:18 41.36238 22.58992 36113 ft 435 kts 308°
2026-05-08 12:18 41.40307 22.53029 36105 ft 435 kts 308°
2026-05-08 12:19 41.44375 22.47040 36107 ft 437 kts 308°
2026-05-08 12:19 41.48440 22.41036 36102 ft 436 kts 309°
2026-05-08 12:20 41.52510 22.35038 36094 ft 436 kts 309°
2026-05-08 12:20 41.56578 22.29033 36084 ft 436 kts 308°
2026-05-08 12:21 41.60635 22.23013 36085 ft 436 kts 308°
2026-05-08 12:21 41.64686 22.16976 36090 ft 437 kts 309°
2026-05-08 12:22 41.68750 22.10931 36090 ft 438 kts 309°
2026-05-08 12:22 41.72798 22.04895 36074 ft 438 kts 309°
2026-05-08 12:23 41.76871 21.98814 36065 ft 439 kts 309°
2026-05-08 12:23 41.80937 21.92717 36051 ft 439 kts 309°
2026-05-08 12:24 41.85002 21.86604 36047 ft 439 kts 309°
2026-05-08 12:24 41.89071 21.80478 36043 ft 440 kts 309°
2026-05-08 12:25 41.93139 21.74342 36057 ft 440 kts 308°
2026-05-08 12:25 41.97208 21.68200 36051 ft 440 kts 308°
2026-05-08 12:26 42.01277 21.62050 36050 ft 440 kts 308°
2026-05-08 12:26 42.05339 21.55894 36075 ft 440 kts 308°
2026-05-08 12:27 42.09393 21.49728 36080 ft 440 kts 308°
2026-05-08 12:27 42.13443 21.43551 36078 ft 440 kts 308°
2026-05-08 12:28 42.17482 21.37362 36076 ft 440 kts 308°
2026-05-08 12:28 42.21453 21.31091 36081 ft 439 kts 307°
2026-05-08 12:29 42.25392 21.24782 36085 ft 440 kts 307°
2026-05-08 12:29 42.29340 21.18467 36088 ft 440 kts 307°
2026-05-08 12:30 42.33305 21.12164 36102 ft 440 kts 307°
2026-05-08 12:30 42.37266 21.05846 36091 ft 440 kts 307°
2026-05-08 12:31 42.41219 20.99510 36087 ft 441 kts 307°
2026-05-08 12:31 42.45141 20.93211 36089 ft 441 kts 307°
2026-05-08 12:32 42.49098 20.86859 36094 ft 441 kts 307°
2026-05-08 12:32 42.53050 20.80495 36103 ft 441 kts 307°
2026-05-08 12:33 42.56996 20.74121 36094 ft 441 kts 307°
2026-05-08 12:33 42.60938 20.67741 36080 ft 441 kts 307°
2026-05-08 12:34 42.64870 20.61359 36068 ft 441 kts 307°
2026-05-08 12:34 42.68808 20.54971 36064 ft 441 kts 307°
2026-05-08 12:35 42.72743 20.48577 36059 ft 441 kts 307°
2026-05-08 12:35 42.76666 20.42164 36066 ft 441 kts 306°
2026-05-08 12:36 42.80592 20.35751 36062 ft 441 kts 306°
2026-05-08 12:36 42.84513 20.29322 36051 ft 441 kts 306°
2026-05-08 12:37 42.88400 20.22931 36045 ft 441 kts 306°
2026-05-08 12:37 42.92335 20.16450 36034 ft 441 kts 306°
2026-05-08 12:38 42.96243 20.10003 36045 ft 441 kts 306°
2026-05-08 12:38 43.00115 20.03598 36019 ft 440 kts 306°
2026-05-08 12:39 43.04009 19.97136 36017 ft 440 kts 306°
2026-05-08 12:39 43.07898 19.90675 36011 ft 440 kts 306°
2026-05-08 12:40 43.11786 19.84206 36006 ft 440 kts 306°
2026-05-08 12:40 43.15675 19.77732 36014 ft 440 kts 306°
2026-05-08 12:41 43.19551 19.71253 36008 ft 440 kts 306°
2026-05-08 12:41 43.23419 19.64767 36003 ft 439 kts 306°
2026-05-08 12:42 43.27356 19.58344 36000 ft 440 kts 308°
2026-05-08 12:42 43.31410 19.52047 36007 ft 440 kts 308°
2026-05-08 12:43 43.35466 19.45741 36020 ft 440 kts 308°
2026-05-08 12:43 43.39490 19.39398 36017 ft 440 kts 308°
2026-05-08 12:44 43.43497 19.33030 36012 ft 440 kts 307°
2026-05-08 12:44 43.47501 19.26654 36010 ft 440 kts 308°
2026-05-08 12:45 43.51505 19.20273 36025 ft 441 kts 307°
2026-05-08 12:45 43.55510 19.13876 36020 ft 441 kts 307°
2026-05-08 12:46 43.59487 19.07514 36022 ft 441 kts 307°
2026-05-08 12:46 43.63520 19.01050 36023 ft 441 kts 307°
2026-05-08 12:47 43.67495 18.94666 36026 ft 442 kts 307°
2026-05-08 12:47 43.71491 18.88226 36043 ft 442 kts 307°
2026-05-08 12:48 43.75491 18.81773 36036 ft 442 kts 307°
2026-05-08 12:48 43.79490 18.75312 36026 ft 442 kts 307°
2026-05-08 12:49 43.83480 18.68839 36060 ft 442 kts 307°
2026-05-08 12:49 43.87463 18.62352 36061 ft 442 kts 307°
2026-05-08 12:50 43.91450 18.55866 36074 ft 442 kts 307°
2026-05-08 12:50 43.95435 18.49363 36073 ft 442 kts 307°
2026-05-08 12:51 44.01400 18.39602 36053 ft 442 kts 307°
2026-05-08 12:52 44.05365 18.33081 36056 ft 442 kts 307°
2026-05-08 12:52 44.11321 18.23284 36055 ft 442 kts 306°
2026-05-08 12:53 44.15282 18.16752 36064 ft 442 kts 306°
2026-05-08 12:53 44.19235 18.10205 36069 ft 441 kts 306°
2026-05-08 12:54 44.22517 18.04759 36068 ft 441 kts 306°
2026-05-08 12:54 44.26462 17.98196 36061 ft 441 kts 306°
2026-05-08 12:55 44.30406 17.91629 36061 ft 442 kts 306°
2026-05-08 12:55 44.34984 17.83984 36062 ft 441 kts 306°
2026-05-08 12:56 44.38276 17.78479 36082 ft 440 kts 306°
2026-05-08 12:56 44.42196 17.71910 36078 ft 440 kts 306°
2026-05-08 12:57 44.46108 17.65330 36070 ft 440 kts 306°
2026-05-08 12:57 44.50014 17.58743 36067 ft 439 kts 306°
2026-05-08 12:58 44.53915 17.52159 36080 ft 439 kts 305°
2026-05-08 12:58 44.57815 17.45574 36077 ft 438 kts 305°
2026-05-08 12:59 44.61699 17.38985 36073 ft 438 kts 305°
2026-05-08 12:59 44.65573 17.32386 36080 ft 438 kts 305°
2026-05-08 13:00 44.69416 17.25829 36085 ft 437 kts 305°
2026-05-08 13:00 44.73280 17.19232 36081 ft 437 kts 305°
2026-05-08 13:01 44.77135 17.12632 36078 ft 437 kts 305°
2026-05-08 13:01 44.80987 17.06022 36075 ft 436 kts 305°
2026-05-08 13:02 44.84831 16.99409 36071 ft 436 kts 304°
2026-05-08 13:02 44.88668 16.92792 36083 ft 435 kts 304°
2026-05-08 13:03 44.92489 16.86186 36092 ft 434 kts 304°
2026-05-08 13:03 44.96291 16.79587 36082 ft 433 kts 304°
2026-05-08 13:04 45.00079 16.72985 36075 ft 432 kts 304°
2026-05-08 13:04 45.03861 16.66381 36072 ft 432 kts 304°
2026-05-08 13:05 45.07642 16.59765 36062 ft 433 kts 304°
2026-05-08 13:05 45.11416 16.53135 36057 ft 433 kts 304°
2026-05-08 13:06 45.15187 16.46485 36056 ft 433 kts 304°
2026-05-08 13:06 45.18973 16.39843 36069 ft 433 kts 304°
2026-05-08 13:07 45.22763 16.33196 36078 ft 433 kts 304°
2026-05-08 13:07 45.26512 16.26581 36072 ft 433 kts 304°
2026-05-08 13:08 45.30276 16.19903 36066 ft 433 kts 304°
2026-05-08 13:08 45.34038 16.13224 36059 ft 433 kts 304°
2026-05-08 13:09 45.37807 16.06543 36072 ft 433 kts 304°
2026-05-08 13:09 45.41565 15.99850 36071 ft 433 kts 303°
2026-05-08 13:10 45.45317 15.93139 36088 ft 433 kts 303°
2026-05-08 13:10 45.49059 15.86431 36085 ft 432 kts 303°
2026-05-08 13:11 45.52791 15.79733 36077 ft 431 kts 303°
2026-05-08 13:11 45.56522 15.73033 36078 ft 431 kts 303°
2026-05-08 13:12 45.60242 15.66333 36072 ft 431 kts 303°
2026-05-08 13:12 45.63952 15.59622 36068 ft 431 kts 303°
2026-05-08 13:13 45.67664 15.52894 36067 ft 431 kts 303°
2026-05-08 13:13 45.71373 15.46160 36068 ft 431 kts 303°
2026-05-08 13:14 45.75072 15.39415 36061 ft 430 kts 303°
2026-05-08 13:14 45.78770 15.32667 36064 ft 431 kts 303°
2026-05-08 13:15 45.82458 15.25912 36062 ft 430 kts 303°
2026-05-08 13:15 45.86115 15.19189 36062 ft 430 kts 303°
2026-05-08 13:16 45.89792 15.12415 36077 ft 430 kts 303°
2026-05-08 13:16 45.93470 15.05627 36070 ft 430 kts 303°
2026-05-08 13:17 45.97143 14.98832 36061 ft 430 kts 303°
2026-05-08 13:17 46.00808 14.92031 36070 ft 430 kts 302°
2026-05-08 13:18 46.04469 14.85229 36067 ft 430 kts 302°
2026-05-08 13:18 46.08125 14.78420 36064 ft 430 kts 302°
2026-05-08 13:19 46.11807 14.71626 36056 ft 431 kts 303°
2026-05-08 13:19 46.15541 14.64863 36054 ft 431 kts 303°
2026-05-08 13:20 46.19278 14.58087 36056 ft 432 kts 303°
2026-05-08 13:20 46.22997 14.51285 36056 ft 432 kts 303°
2026-05-08 13:21 46.26686 14.44506 36070 ft 432 kts 303°
2026-05-08 13:21 46.30392 14.37668 36068 ft 432 kts 303°
2026-05-08 13:22 46.34102 14.30821 36067 ft 432 kts 303°
2026-05-08 13:22 46.37813 14.23967 36068 ft 433 kts 303°
2026-05-08 13:23 46.41518 14.17101 36082 ft 432 kts 302°
2026-05-08 13:23 46.45215 14.10227 36077 ft 432 kts 302°
2026-05-08 13:24 46.48910 14.03354 36072 ft 432 kts 302°
2026-05-08 13:24 46.52595 13.96492 36073 ft 431 kts 302°
2026-05-08 13:25 46.56271 13.89615 36082 ft 431 kts 302°
2026-05-08 13:25 46.59940 13.82735 36084 ft 430 kts 302°
2026-05-08 13:26 46.63603 13.75857 36070 ft 430 kts 302°
2026-05-08 13:26 46.67258 13.68980 36059 ft 429 kts 302°
2026-05-08 13:27 46.70905 13.62095 36060 ft 429 kts 302°
2026-05-08 13:27 46.74546 13.55207 36054 ft 429 kts 302°
2026-05-08 13:28 46.78182 13.48318 36062 ft 428 kts 302°
2026-05-08 13:28 46.81812 13.41417 36073 ft 428 kts 302°
2026-05-08 13:29 46.85437 13.34512 36062 ft 429 kts 302°
2026-05-08 13:29 46.89060 13.27593 36056 ft 429 kts 302°
2026-05-08 13:30 46.92676 13.20662 36050 ft 428 kts 302°
2026-05-08 13:30 46.96282 13.13727 36045 ft 429 kts 302°
2026-05-08 13:31 46.99869 13.06814 36032 ft 429 kts 302°
2026-05-08 13:31 47.03511 12.99804 36031 ft 429 kts 302°
2026-05-08 13:32 47.07094 12.92884 36047 ft 429 kts 302°
2026-05-08 13:32 47.10695 12.85890 36030 ft 430 kts 302°
2026-05-08 13:33 47.14298 12.78876 36031 ft 431 kts 301°
2026-05-08 13:33 47.17903 12.71846 36027 ft 431 kts 301°
2026-05-08 13:34 47.21510 12.64791 36024 ft 432 kts 301°
2026-05-08 13:34 47.25123 12.57719 36031 ft 433 kts 301°
2026-05-08 13:35 47.28737 12.50636 36046 ft 432 kts 301°
2026-05-08 13:35 47.32337 12.43543 36052 ft 432 kts 301°
2026-05-08 13:36 47.35925 12.36436 36065 ft 431 kts 301°
2026-05-08 13:36 47.39506 12.29339 36063 ft 431 kts 301°
2026-05-08 13:37 47.43083 12.22244 36061 ft 431 kts 301°
2026-05-08 13:37 47.46663 12.15136 36063 ft 431 kts 301°
2026-05-08 13:38 47.50232 12.08022 36061 ft 430 kts 301°
2026-05-08 13:38 47.53788 12.00901 36060 ft 430 kts 301°
2026-05-08 13:39 47.57352 11.93793 36054 ft 430 kts 301°
2026-05-08 13:39 47.60926 11.86702 36055 ft 429 kts 301°
2026-05-08 13:40 47.64489 11.79607 36074 ft 429 kts 301°
2026-05-08 13:40 47.68045 11.72498 36054 ft 429 kts 301°
2026-05-08 13:41 47.71601 11.65389 36049 ft 429 kts 301°
2026-05-08 13:41 47.75147 11.58270 36046 ft 429 kts 301°
2026-05-08 13:42 47.78690 11.51140 36047 ft 429 kts 301°
2026-05-08 13:42 47.82226 11.43991 36070 ft 429 kts 301°
2026-05-08 13:43 47.85164 11.38038 36070 ft 430 kts 301°
2026-05-08 13:43 47.88706 11.30859 36082 ft 430 kts 301°
2026-05-08 13:44 47.92244 11.23672 36072 ft 430 kts 301°
2026-05-08 13:44 47.95775 11.16466 36075 ft 430 kts 301°
2026-05-08 13:45 47.99302 11.09254 36087 ft 430 kts 302°
2026-05-08 13:45 48.02826 11.02026 36081 ft 431 kts 301°
2026-05-08 13:46 48.06355 10.94788 36083 ft 431 kts 301°
2026-05-08 13:46 48.09875 10.87540 36082 ft 431 kts 301°
2026-05-08 13:47 48.13386 10.80268 36079 ft 431 kts 301°
2026-05-08 13:47 48.16896 10.72988 36101 ft 431 kts 302°
2026-05-08 13:48 48.20402 10.65702 36086 ft 431 kts 302°
2026-05-08 13:48 48.23905 10.58399 36075 ft 431 kts 302°
2026-05-08 13:49 48.27406 10.51079 36075 ft 432 kts 302°
2026-05-08 13:49 48.30883 10.43800 36077 ft 432 kts 302°
2026-05-08 13:50 48.34382 10.36461 36076 ft 432 kts 302°
2026-05-08 13:50 48.37871 10.29098 36079 ft 433 kts 302°
2026-05-08 13:51 48.41367 10.21723 36075 ft 433 kts 302°
2026-05-08 13:51 48.44864 10.14326 36073 ft 433 kts 302°
2026-05-08 13:52 48.48354 10.06919 36081 ft 434 kts 302°
2026-05-08 13:52 48.51843 9.99478 36077 ft 434 kts 302°
2026-05-08 13:53 48.55327 9.92041 36080 ft 434 kts 302°
2026-05-08 13:53 48.58806 9.84586 36066 ft 435 kts 302°
2026-05-08 13:54 48.62265 9.77163 36066 ft 435 kts 302°
2026-05-08 13:54 48.65740 9.69683 36064 ft 435 kts 302°
2026-05-08 13:55 48.69618 9.62622 36072 ft 438 kts 310°
2026-05-08 13:56 48.75884 9.52506 36076 ft 439 kts 310°
2026-05-08 13:56 48.80048 9.45723 36069 ft 440 kts 310°
2026-05-08 13:57 48.84214 9.38929 36073 ft 440 kts 310°
2026-05-08 13:57 48.88381 9.32133 36070 ft 439 kts 310°
2026-05-08 13:58 48.92546 9.25321 36069 ft 440 kts 310°
2026-05-08 13:58 48.96688 9.18531 36078 ft 440 kts 310°
2026-05-08 13:59 49.00846 9.11685 36078 ft 440 kts 310°
2026-05-08 13:59 49.05002 9.04817 36078 ft 440 kts 310°
2026-05-08 14:00 49.09145 8.97966 36080 ft 441 kts 310°
2026-05-08 14:00 49.13298 8.91081 36080 ft 441 kts 310°
2026-05-08 14:01 49.17442 8.84190 36090 ft 440 kts 310°
2026-05-08 14:01 49.21579 8.77284 36096 ft 440 kts 310°
2026-05-08 14:02 49.25718 8.70373 36085 ft 440 kts 310°
2026-05-08 14:02 49.29847 8.63445 36084 ft 440 kts 310°
2026-05-08 14:03 49.33976 8.56508 36089 ft 440 kts 310°
2026-05-08 14:03 49.38102 8.49562 36090 ft 441 kts 310°
2026-05-08 14:04 49.42227 8.42590 36096 ft 441 kts 310°
2026-05-08 14:04 49.46351 8.35611 36101 ft 441 kts 310°
2026-05-08 14:05 49.50471 8.28618 36103 ft 441 kts 309°
2026-05-08 14:05 49.54578 8.21615 36103 ft 441 kts 309°
2026-05-08 14:06 49.58680 8.14600 36099 ft 440 kts 309°
2026-05-08 14:06 49.62774 8.07581 36105 ft 440 kts 309°
2026-05-08 14:07 49.66869 8.00550 36107 ft 440 kts 309°
2026-05-08 14:07 49.70955 7.93514 36115 ft 440 kts 309°
2026-05-08 14:08 49.75030 7.86474 36118 ft 440 kts 309°
2026-05-08 14:08 49.79074 7.79464 36107 ft 439 kts 309°
2026-05-08 14:09 49.83136 7.72406 36110 ft 439 kts 309°
2026-05-08 14:09 49.87194 7.65340 36114 ft 439 kts 309°
2026-05-08 14:10 49.91248 7.58269 36112 ft 438 kts 309°
2026-05-08 14:10 49.95289 7.51186 36115 ft 438 kts 309°
2026-05-08 14:11 49.99330 7.44100 36115 ft 438 kts 309°
2026-05-08 14:11 50.03361 7.37006 36110 ft 438 kts 309°
2026-05-08 14:12 50.06698 7.29206 36108 ft 431 kts 291°
2026-05-08 14:12 50.08183 7.20271 36101 ft 426 kts 273°
2026-05-08 14:13 50.08577 7.11076 36098 ft 426 kts 272°
2026-05-08 14:13 50.08970 7.01870 36096 ft 426 kts 272°
2026-05-08 14:14 50.09349 6.92659 36092 ft 426 kts 272°
2026-05-08 14:14 50.09452 6.83446 36088 ft 425 kts 267°
2026-05-08 14:15 50.09259 6.74302 36082 ft 425 kts 267°
2026-05-08 14:15 50.09069 6.65094 36081 ft 426 kts 267°
2026-05-08 14:16 50.08874 6.55878 36076 ft 426 kts 267°
2026-05-08 14:16 50.08673 6.46668 36075 ft 426 kts 267°
2026-05-08 14:17 50.08463 6.37450 36074 ft 426 kts 267°
2026-05-08 14:17 50.08241 6.28236 36072 ft 426 kts 267°
2026-05-08 14:18 50.08008 6.19013 36071 ft 427 kts 267°
2026-05-08 14:18 50.07854 6.09778 36078 ft 427 kts 275°
2026-05-08 14:18 50.08529 6.05288 36069 ft 429 kts 292°
2026-05-08 14:19 50.10068 6.01312 36075 ft 432 kts 309°
2026-05-08 14:19 50.12348 5.98249 36073 ft 437 kts 327°
2026-05-08 14:19 50.15130 5.96306 36059 ft 440 kts 336°
2026-05-08 14:20 50.20914 5.92956 35304 ft 448 kts 337°
2026-05-08 14:20 50.23846 5.91275 34454 ft 451 kts 337°
2026-05-08 14:20 50.26806 5.89579 33472 ft 455 kts 337°
2026-05-08 14:20 50.29773 5.87868 32849 ft 451 kts 337°
2026-05-08 14:21 50.32696 5.86171 32279 ft 445 kts 337°
2026-05-08 14:21 50.35544 5.84513 31705 ft 441 kts 338°
2026-05-08 14:21 50.38408 5.82844 31141 ft 437 kts 338°
2026-05-08 14:21 50.41249 5.81189 30562 ft 434 kts 338°
2026-05-08 14:22 50.44070 5.79545 29973 ft 431 kts 338°
2026-05-08 14:22 50.46874 5.77909 29393 ft 427 kts 338°
2026-05-08 14:22 50.49641 5.76290 28848 ft 422 kts 338°
2026-05-08 14:22 50.52379 5.74683 28307 ft 418 kts 338°
2026-05-08 14:23 50.55082 5.73073 27778 ft 413 kts 335°
2026-05-08 14:23 50.57600 5.70991 27261 ft 406 kts 324°
2026-05-08 14:23 50.59801 5.68267 26747 ft 400 kts 314°
2026-05-08 14:23 50.61642 5.65040 26265 ft 394 kts 307°
2026-05-08 14:24 50.63348 5.61684 25793 ft 390 kts 307°
2026-05-08 14:24 50.65037 5.58362 25331 ft 387 kts 307°
2026-05-08 14:24 50.66714 5.55066 24870 ft 384 kts 307°
2026-05-08 14:24 50.68378 5.51798 24417 ft 381 kts 307°
2026-05-08 14:25 50.70030 5.48551 23963 ft 378 kts 307°
2026-05-08 14:25 50.71668 5.45317 23477 ft 376 kts 307°
2026-05-08 14:25 50.73290 5.42101 23004 ft 372 kts 307°
2026-05-08 14:25 50.74890 5.38925 22559 ft 368 kts 307°
2026-05-08 14:26 50.76477 5.35776 22108 ft 365 kts 307°
2026-05-08 14:26 50.78048 5.32657 21663 ft 361 kts 307°
2026-05-08 14:26 50.79605 5.29562 21218 ft 358 kts 307°
2026-05-08 14:26 50.81150 5.26483 20757 ft 356 kts 307°
2026-05-08 14:27 50.82685 5.23422 20308 ft 355 kts 307°
2026-05-08 14:27 50.84217 5.20364 19853 ft 354 kts 307°
2026-05-08 14:27 50.85730 5.17310 19407 ft 352 kts 303°
2026-05-08 14:27 50.86945 5.13972 18956 ft 349 kts 292°
2026-05-08 14:28 50.87695 5.10342 18508 ft 346 kts 280°
2026-05-08 14:28 50.87988 5.06577 18029 ft 344 kts 272°
2026-05-08 14:28 50.88148 5.02856 17589 ft 342 kts 272°
2026-05-08 14:28 50.88313 4.99117 17155 ft 339 kts 272°
2026-05-08 14:29 50.88479 4.95397 16729 ft 338 kts 272°
2026-05-08 14:29 50.88643 4.91695 16302 ft 336 kts 273°
2026-05-08 14:29 50.88806 4.88013 15878 ft 335 kts 272°
2026-05-08 14:29 50.88967 4.84344 15457 ft 334 kts 272°
2026-05-08 14:30 50.89125 4.80681 15037 ft 332 kts 272°
2026-05-08 14:30 50.89279 4.77039 14636 ft 331 kts 273°
2026-05-08 14:30 50.89432 4.73385 14130 ft 333 kts 272°
2026-05-08 14:30 50.89586 4.69720 13602 ft 335 kts 272°
2026-05-08 14:31 50.89740 4.66036 13052 ft 335 kts 272°
2026-05-08 14:31 50.89891 4.62352 12503 ft 336 kts 272°
2026-05-08 14:31 50.90041 4.58667 11965 ft 335 kts 272°
2026-05-08 14:32 50.90389 4.51301 10910 ft 334 kts 275°
2026-05-08 14:32 50.90684 4.47655 10397 ft 333 kts 277°
2026-05-08 14:32 50.91028 4.44039 9874 ft 330 kts 277°
2026-05-08 14:32 50.91377 4.40526 9307 ft 315 kts 278°
2026-05-08 14:33 50.91704 4.37173 8835 ft 300 kts 277°
2026-05-08 14:33 50.92005 4.33974 8393 ft 287 kts 277°
2026-05-08 14:33 50.92289 4.30862 7958 ft 285 kts 277°
2026-05-08 14:33 50.92564 4.27755 7526 ft 285 kts 277°
2026-05-08 14:34 50.92747 4.25658 7234 ft 284 kts 277°
2026-05-08 14:34 50.93016 4.22558 6809 ft 284 kts 277°
2026-05-08 14:34 50.93269 4.19456 6381 ft 283 kts 272°
2026-05-08 14:34 50.93098 4.16437 6116 ft 275 kts 254°
2026-05-08 14:35 50.92364 4.13673 5989 ft 272 kts 236°
2026-05-08 14:35 50.91148 4.11412 5852 ft 267 kts 219°
2026-05-08 14:35 50.89698 4.09688 5721 ft 254 kts 207°
2026-05-08 14:35 50.88072 4.08780 5591 ft 246 kts 187°
2026-05-08 14:36 50.86380 4.08819 5461 ft 243 kts 167°
2026-05-08 14:36 50.84806 4.09724 5336 ft 241 kts 154°
2026-05-08 14:36 50.83280 4.10836 5118 ft 241 kts 154°
2026-05-08 14:36 50.81867 4.12210 4793 ft 237 kts 130°
2026-05-08 14:37 50.81225 4.14541 4449 ft 235 kts 92°
2026-05-08 14:37 50.81628 4.17002 4118 ft 236 kts 60°
2026-05-08 14:37 50.82449 4.19256 3783 ft 236 kts 64°
2026-05-08 14:37 50.83137 4.21602 3447 ft 234 kts 67°
2026-05-08 14:38 50.83771 4.23961 3135 ft 232 kts 68°
2026-05-08 14:38 50.84394 4.26275 2794 ft 224 kts 67°
2026-05-08 14:38 50.84996 4.28460 2511 ft 207 kts 66°
2026-05-08 14:38 50.85561 4.30470 2237 ft 195 kts 66°
2026-05-08 14:39 50.86094 4.32345 2033 ft 179 kts 66°
2026-05-08 14:39 50.86592 4.34083 1760 ft 167 kts 66°
2026-05-08 14:39 50.87051 4.35683 1566 ft 151 kts 66°
2026-05-08 14:39 50.87468 4.37139 1352 ft 141 kts 66°
2026-05-08 14:40 50.87867 4.38532 1168 ft 137 kts 66°
2026-05-08 14:40 50.88256 4.39895 995 ft 135 kts 66°
2026-05-08 14:40 50.88645 4.41243 816 ft 134 kts 65°
2026-05-08 14:40 50.89035 4.42586 666 ft 134 kts 66°
2026-05-08 14:41 50.89415 4.43931 455 ft 134 kts 64°
2026-05-08 14:41 50.89809 4.45270 265 ft 134 kts 65°
2026-05-08 14:41 50.90191 4.46603 136 ft 126 kts 65°
2026-05-08 14:41 50.90497 4.47664 119 ft 82 kts 65°
2026-05-08 14:42 50.90659 4.48228 120 ft 31 kts 71°
2026-05-08 14:42 50.90625 4.48391 118 ft 12 kts 122°
2026-05-08 14:42 50.90595 4.48465 121 ft 4 kts 122°
2026-05-08 14:42 50.90592 4.48474 121 ft 0 kts 122°
2026-05-08 14:43 50.90591 4.48478 121 ft 2 kts 122°
2026-05-08 14:43 50.90576 4.48514 117 ft 5 kts 122°
2026-05-08 14:43 50.90560 4.48557 119 ft 4 kts 121°
2026-05-08 14:43 50.90546 4.48590 120 ft 3 kts 130°
2026-05-08 14:44 50.90532 4.48603 121 ft 3 kts 151°
2026-05-08 14:44 50.90479 4.48642 117 ft 9 kts 156°
2026-05-08 14:44 50.90445 4.48666 118 ft 7 kts 155°
2026-05-08 14:44 50.90430 4.48676 120 ft 0 kts 156°